| time (UTC) | temp F | wind direction | speed MPH | gust MPH | rain 1hr in | rain 24hr in | rain mn in | humidity % | barometer mb |
| 20260506084002 | 62 | 239 | 1.0 | 8.0 | 0.00 | 1.03 | 1.02 | 87 | 1008.0 |
| 20260506082959 | 62 | 216 | 2.0 | 5.0 | 0.00 | 1.03 | 1.02 | 88 | 1008.0 |
| 20260506082000 | 62 | 189 | 3.0 | 10.0 | 0.00 | 1.03 | 1.02 | 89 | 1007.9 |
| 20260506081000 | 62 | 184 | 5.0 | 7.0 | 0.00 | 1.03 | 1.02 | 89 | 1007.7 |
| 20260506072000 | 62 | 206 | 7.0 | 21.0 | 0.15 | 1.03 | 1.02 | 91 | 1007.2 |
| 20260506071007 | 62 | 203 | 5.0 | 21.0 | 0.15 | 1.03 | 1.02 | 91 | 1007.2 |
| 20260506061959 | 61 | 168 | 3.0 | 14.0 | 0.00 | 0.91 | 0.87 | 87 | 1007.0 |
| 20260506061003 | 60 | 102 | 2.0 | 9.0 | 0.00 | 0.95 | 0.87 | 89 | 1007.1 |
| 20260506051001 | 57 | 0 | 0.0 | 0.0 | 0.06 | 1.25 | 0.87 | 92 | 1007.5 |
| 20260506044000 | 56 | 0 | 0.0 | 0.0 | 0.07 | 1.35 | 0.86 | 93 | 1007.6 |
| 20260506043000 | 56 | 0 | 0.0 | 0.0 | 0.07 | 1.41 | 0.86 | 92 | 1007.7 |
| 20260506042000 | 56 | 0 | 0.0 | 0.0 | 0.07 | 1.48 | 0.86 | 92 | 1007.9 |
| 20260506041001 | 56 | 0 | 0.0 | 0.0 | 0.02 | 1.47 | 0.80 | 91 | 1008.5 |
| 20260506040000 | 56 | 0 | 0.0 | 0.0 | 0.01 | 1.59 | 0.80 | 90 | 1008.5 |
| 20260506035000 | 56 | 0 | 0.0 | 0.0 | 0.01 | 1.62 | 0.79 | 90 | 1008.3 |
| 20260506034001 | 57 | 351 | 0.0 | 1.0 | 0.02 | 1.65 | 0.79 | 90 | 1008.1 |
| 20260506033000 | 56 | 0 | 1.0 | 0.0 | 0.02 | 1.68 | 0.79 | 90 | 1008.3 |
| 20260506031000 | 56 | 0 | 0.0 | 0.0 | 0.03 | 1.76 | 0.79 | 91 | 1008.3 |
| 20260506030001 | 56 | 0 | 0.0 | 0.0 | 0.06 | 1.78 | 0.79 | 92 | 1008.4 |
| 20260506025000 | 56 | 0 | 0.0 | 0.0 | 0.09 | 1.79 | 0.78 | 92 | 1008.9 |
| 20260506024000 | 56 | 0 | 0.0 | 0.0 | 0.14 | 1.79 | 0.77 | 92 | 1009.2 |
| 20260506023000 | 56 | 0 | 0.0 | 0.0 | 0.29 | 1.81 | 0.77 | 92 | 1009.2 |
| 20260506022001 | 56 | 0 | 0.0 | 0.0 | 0.47 | 1.82 | 0.76 | 92 | 1009.3 |
| 20260506021000 | 56 | 0 | 0.0 | 0.0 | 0.51 | 1.83 | 0.76 | 91 | 1009.3 |
| 20260506020001 | 56 | 0 | 0.0 | 0.0 | 0.50 | 1.80 | 0.72 | 91 | 1009.4 |
| 20260506015002 | 57 | 0 | 0.0 | 0.0 | 0.47 | 1.78 | 0.69 | 91 | 1009.9 |
| 20260506014000 | 58 | 0 | 0.0 | 0.0 | 0.43 | 1.73 | 0.62 | 90 | 1010.2 |
| 20260506013000 | 58 | 0 | 0.0 | 0.0 | 0.30 | 1.61 | 0.48 | 92 | 1010.3 |
| 20260506012000 | 59 | 259 | 0.0 | 2.0 | 0.11 | 1.42 | 0.28 | 92 | 1009.7 |
| 20260506005001 | 58 | 0 | 0.0 | 0.0 | 0.06 | 1.37 | 0.20 | 94 | 1009.7 |
| 20260506004002 | 58 | 0 | 0.0 | 0.0 | 0.04 | 1.35 | 0.19 | 93 | 1009.7 |
| 20260506003000 | 58 | 0 | 0.0 | 0.0 | 0.03 | 1.35 | 0.18 | 93 | 1009.8 |
| 20260506001959 | 58 | 0 | 0.0 | 0.0 | 0.02 | 1.34 | 0.17 | 93 | 1009.6 |
| 20260506001000 | 58 | 0 | 0.0 | 0.0 | 0.00 | 1.31 | 0.15 | 93 | 1009.7 |
| 20260506000000 | 59 | 0 | 0.0 | 0.0 | 0.00 | 1.31 | 0.15 | 92 | 1009.9 |
| 20260505235005 | 59 | 0 | 0.0 | 0.0 | 0.00 | 1.31 | 0.15 | 92 | 1010.0 |
| 20260505234001 | 59 | 0 | 0.0 | 0.0 | 0.00 | 1.31 | 0.15 | 92 | 1010.5 |
| 20260505233002 | 59 | 0 | 0.0 | 0.0 | 0.01 | 1.31 | 0.15 | 92 | 1010.5 |
| 20260505232001 | 59 | 0 | 0.0 | 0.0 | 0.14 | 1.31 | 0.15 | 91 | 1010.8 |
| 20260505230000 | 59 | 0 | 0.0 | 0.0 | 0.15 | 1.31 | 0.15 | 92 | 1010.9 |
| 20260505224000 | 59 | 0 | 0.0 | 0.0 | 0.15 | 1.31 | 0.15 | 91 | 1011.1 |
| 20260505223001 | 60 | 0 | 0.0 | 0.0 | 0.14 | 1.31 | 0.14 | 89 | 1011.1 |
| 20260505221000 | 60 | 352 | 0.0 | 3.0 | 0.00 | 1.17 | 0.00 | 88 | 1011.3 |
| 20260505220005 | 60 | 0 | 0.0 | 0.0 | 0.00 | 1.17 | 0.00 | 87 | 1011.1 |
| 20260505215001 | 60 | 0 | 0.0 | 0.0 | 0.00 | 1.17 | 1.17 | 88 | 1011.3 |
| 20260505212014 | 60 | 0 | 0.0 | 0.0 | 0.00 | 1.17 | 1.17 | 88 | 1011.5 |
| 20260505211000 | 60 | 0 | 0.0 | 0.0 | 0.00 | 1.17 | 1.17 | 88 | 1011.6 |
| 20260505210000 | 60 | 0 | 0.0 | 0.0 | 0.00 | 1.17 | 1.17 | 88 | 1011.8 |
| 20260505205000 | 60 | 0 | 0.0 | 0.0 | 0.00 | 1.17 | 1.17 | 87 | 1011.8 |
| 20260505204002 | 61 | 0 | 0.0 | 0.0 | 0.00 | 1.17 | 1.17 | 87 | 1011.9 |
| 20260505203000 | 61 | 0 | 0.0 | 0.0 | 0.00 | 1.17 | 1.17 | 87 | 1011.9 |
| 20260505201005 | 62 | 0 | 0.0 | 0.0 | 0.00 | 1.17 | 1.17 | 86 | 1011.8 |
| 20260505200000 | 61 | 67 | 0.0 | 2.0 | 0.00 | 1.17 | 1.17 | 87 | 1011.9 |
| 20260505194009 | 62 | 0 | 0.0 | 0.0 | 0.00 | 1.17 | 1.17 | 86 | 1011.9 |
| 20260505193001 | 62 | 0 | 0.0 | 0.0 | 0.00 | 1.17 | 1.17 | 85 | 1011.7 |
| 20260505191005 | 63 | 236 | 0.0 | 1.0 | 0.00 | 1.17 | 1.17 | 85 | 1011.6 |
| 20260505190001 | 63 | 0 | 0.0 | 0.0 | 0.00 | 1.17 | 1.17 | 84 | 1011.5 |
| 20260505185009 | 63 | 241 | 0.0 | 1.0 | 0.00 | 1.17 | 1.17 | 84 | 1011.5 |
| 20260505184000 | 63 | 224 | 0.0 | 4.0 | 0.00 | 1.17 | 1.17 | 84 | 1011.5 |
| 20260505182000 | 63 | 238 | 0.0 | 6.0 | 0.00 | 1.17 | 1.17 | 84 | 1011.5 |
| 20260505181003 | 63 | 228 | 0.0 | 1.0 | 0.00 | 1.17 | 1.17 | 84 | 1011.6 |
| 20260505175001 | 63 | 218 | 1.0 | 3.0 | 0.00 | 1.17 | 1.17 | 84 | 1011.5 |
| 20260505174001 | 63 | 233 | 0.0 | 3.0 | 0.00 | 1.17 | 1.17 | 84 | 1011.4 |
| 20260505173001 | 63 | 229 | 1.0 | 4.0 | 0.00 | 1.17 | 1.17 | 84 | 1011.4 |
| 20260505172000 | 63 | 237 | 2.0 | 8.0 | 0.00 | 1.17 | 1.17 | 84 | 1011.4 |
| 20260505171000 | 63 | 231 | 3.0 | 3.0 | 0.00 | 1.17 | 1.17 | 83 | 1011.4 |
| 20260505170001 | 63 | 241 | 2.0 | 5.0 | 0.00 | 1.17 | 1.17 | 82 | 1011.4 |
| 20260505165004 | 64 | 236 | 1.0 | 3.0 | 0.00 | 1.17 | 1.17 | 80 | 1011.4 |
| 20260505164004 | 64 | 243 | 2.0 | 5.0 | 0.00 | 1.17 | 1.17 | 80 | 1011.4 |
| 20260505163008 | 64 | 244 | 0.0 | 5.0 | 0.00 | 1.17 | 1.17 | 79 | 1011.4 |
| 20260505162000 | 64 | 235 | 0.0 | 6.0 | 0.00 | 1.17 | 1.17 | 79 | 1011.4 |
| 20260505152002 | 64 | 228 | 2.0 | 6.0 | 0.00 | 1.17 | 1.17 | 80 | 1011.8 |
| 20260505124001 | 62 | 0 | 0.0 | 0.0 | 0.00 | 1.17 | 1.17 | 80 | 1012.0 |
| 20260505123002 | 62 | 0 | 0.0 | 0.0 | 0.00 | 1.17 | 1.17 | 79 | 1012.0 |
| 20260505122004 | 63 | 0 | 2.0 | 0.0 | 0.00 | 1.17 | 1.17 | 79 | 1012.0 |
| 20260505121000 | 63 | 0 | 0.0 | 0.0 | 0.00 | 1.17 | 1.17 | 79 | 1012.0 |
| 20260505115004 | 62 | 223 | 0.0 | 1.0 | 0.00 | 1.17 | 1.17 | 80 | 1012.1 |
| 20260505114001 | 61 | 340 | 0.0 | 6.0 | 0.00 | 1.17 | 1.17 | 80 | 1012.1 |
| 20260505113001 | 62 | 150 | 0.0 | 3.0 | 0.00 | 1.17 | 1.17 | 79 | 1012.2 |
| 20260505112001 | 61 | 255 | 0.0 | 2.0 | 0.00 | 1.17 | 1.17 | 80 | 1012.2 |
| 20260505101001 | 57 | 76 | 1.0 | 6.0 | 0.02 | 1.17 | 1.17 | 88 | 1012.4 |
| 20260505100000 | 57 | 75 | 3.0 | 8.0 | 0.02 | 1.17 | 1.17 | 88 | 1012.5 |
| 20260505095001 | 57 | 52 | 1.0 | 8.0 | 0.02 | 1.17 | 1.17 | 87 | 1012.5 |
| 20260505092004 | 58 | 1 | 3.0 | 9.0 | 0.00 | 1.15 | 1.15 | 84 | 1012.1 |
| 20260505091001 | 58 | 126 | 1.0 | 4.0 | 0.00 | 1.15 | 1.15 | 83 | 1012.2 |
| 20260505090001 | 58 | 0 | 1.0 | 0.0 | 0.00 | 1.15 | 1.15 | 83 | 1012.2 |
| 20260505085001 | 59 | 337 | 2.0 | 8.0 | 0.00 | 1.15 | 1.15 | 84 | 1012.0 |